Flag for U.S.A. Weather past 2 weeks in Little Rock, Arkansas, U.S.A.

Now
45 °F

Passing clouds.


Feels Like: 43 °F
Forecast: 43 / 56 °F
Wind: 5 mph from Southeast

Location: Adams Field

Current Time: Dec 21, 2014 at 10:00:52 PM

Latest Report: Dec 21, 2014 at 8:53 PM


Visibility: 10 mi

Pressure: 29.94 "Hg

Humidity: 68%

Dew point: 35 °F

Location of Little RockLocation

Historic Weather in Little Rock — Graph

°F

Little Rock temperature yesterday

Maximum temperature yesterday: 50 °F (at 2:53 PM)
Minimum temperature yesterday: 38 °F (at 11:53 PM)
Average temperature yesterday: 43 °F

Past Weeks' High & Low Weather Summary

 TemperatureHumidityPressure
High71 °F (Dec 15, 12:53 PM)93% (Dec 13, 5:53 AM)30.52 "Hg (Dec 13, 5:53 AM)
Low31 °F (Dec 10, 4:53 AM)31% (Dec 15, 2:53 PM)29.74 "Hg (Dec 15, 1:53 PM)
Average45 °F72%30.24 "Hg
* Reported Dec 6 8:53 PM — Dec 21 8:53 PM, Little Rock, Weather by CustomWeather, © 2014

Note: Actual official high and low records may vary slightly from our data, if they occured in-between our weather recording intervals... More about our weather records

Advertising

Little Rock weather history for previous 24 hours

 ConditionsComfort  
Time TempWeatherWind HumidityBarometerVisibility
8:53 PM
Dec 21
45 °FPassing clouds.5 mph68%29.94 "Hg10 mi
7:53 PM47 °FPassing clouds.7 mph69%29.95 "Hg10 mi
6:53 PM48 °FPassing clouds.3 mph66%29.97 "Hg10 mi
5:53 PM50 °FPassing clouds.7 mph61%29.97 "Hg10 mi
4:53 PM53 °FBroken clouds.12 mph52%29.98 "Hg10 mi
3:53 PM54 °FBroken clouds.15 mph49%30.00 "Hg10 mi
2:53 PM54 °FPartly sunny.10 mph49%30.02 "Hg10 mi
1:53 PM54 °FScattered clouds.12 mph49%30.04 "Hg10 mi
12:53 PM53 °FScattered clouds.10 mph48%30.09 "Hg10 mi
11:53 AM51 °FScattered clouds.10 mph54%30.12 "Hg10 mi
10:53 AM48 °FScattered clouds.3 mph59%30.19 "Hg10 mi
9:53 AM44 °FScattered clouds.3 mph68%30.20 "Hg10 mi
8:53 AM40 °FFog.6 mph83%30.21 "Hg6 mi
7:53 AM35 °FFog.No wind88%30.22 "Hg6 mi
6:53 AM35 °FFog.3 mph85%30.22 "Hg3 mi
5:53 AM34 °FFog.No wind88%30.21 "Hg5 mi
4:53 AM34 °FFog.No wind85%30.21 "Hg5 mi
3:53 AM34 °FFog.No wind88%30.21 "Hg5 mi
2:53 AM35 °FFog.No wind88%30.23 "Hg5 mi
1:53 AM35 °FFog.No wind88%30.23 "Hg6 mi
12:53 AM35 °FFog.3 mph88%30.24 "Hg6 mi
11:53 PM
Dec 20
38 °FFog.No wind86%30.26 "Hg6 mi
10:53 PM39 °FPassing clouds.No wind82%30.27 "Hg7 mi
Weather by CustomWeather, © 2014

See weather overviewHow to use our weather pages